| time (UTC) | temp C | wind direction | speed KPH | gust KPH | rain 1hr cm | rain 24hr cm | rain mn cm | humidity % | barometer mb |
| 20260504045151 | 7 | 216 | 0.0 | 0.0 | 0.00 | 0.00 | 0.00 | 79 | 1014.2 |
| 20260504044841 | 7 | 216 | 0.0 | 0.0 | 0.00 | 0.00 | 0.00 | 79 | 1014.2 |
| 20260504043341 | 7 | 215 | 0.0 | 0.0 | 0.00 | 0.00 | 0.00 | 76 | 1014.3 |
| 20260504041841 | 7 | 215 | 0.0 | 0.0 | 0.00 | 0.00 | 0.00 | 73 | 1014.3 |
| 20260504040341 | 7 | 215 | 0.0 | 0.0 | 0.00 | 0.00 | 0.00 | 72 | 1014.4 |
| 20260504034842 | 7 | 215 | 0.0 | 1.6 | 0.00 | 0.00 | 0.00 | 73 | 1014.7 |
| 20260504033341 | 6 | 225 | 1.6 | 1.6 | 0.00 | 0.00 | 0.00 | 73 | 1014.7 |
| 20260504032145 | 5 | 243 | 0.0 | 1.6 | 0.00 | 0.00 | 0.00 | 78 | 1014.5 |
| 20260504031842 | 5 | 243 | 0.0 | 1.6 | 0.00 | 0.00 | 0.00 | 78 | 1014.5 |
| 20260504030341 | 5 | 242 | 0.0 | 0.0 | 0.00 | 0.00 | 0.00 | 79 | 1014.6 |
| 20260504024841 | 5 | 242 | 0.0 | 0.0 | 0.00 | 0.00 | 0.00 | 76 | 1014.5 |
| 20260504023342 | 6 | 242 | 0.0 | 0.0 | 0.00 | 0.00 | 0.00 | 73 | 1014.6 |
| 20260504022145 | 6 | 242 | 0.0 | 0.0 | 0.00 | 0.00 | 0.00 | 72 | 1014.8 |
| 20260504021841 | 6 | 242 | 0.0 | 0.0 | 0.00 | 0.00 | 0.00 | 71 | 1014.8 |
| 20260504020342 | 7 | 242 | 0.0 | 0.0 | 0.00 | 0.00 | 0.00 | 69 | 1014.7 |
| 20260504015357 | 7 | 242 | 0.0 | 0.0 | 0.00 | 0.00 | 0.00 | 66 | 1014.7 |
| 20260504015146 | 7 | 242 | 0.0 | 0.0 | 0.00 | 0.00 | 0.00 | 66 | 1014.7 |
| 20260504013856 | 7 | 242 | 0.0 | 0.0 | 0.00 | 0.00 | 0.00 | 66 | 1014.7 |
| 20260504012357 | 8 | 242 | 0.0 | 0.0 | 0.00 | 0.00 | 0.00 | 61 | 1014.5 |
| 20260504012149 | 8 | 242 | 0.0 | 0.0 | 0.00 | 0.00 | 0.00 | 61 | 1014.5 |
| 20260504010856 | 10 | 242 | 0.0 | 0.0 | 0.00 | 0.00 | 0.00 | 59 | 1014.6 |
| 20260504010701 | 10 | 242 | 0.0 | 0.0 | 0.00 | 0.00 | 0.00 | 59 | 1014.6 |
| 20260504005357 | 10 | 242 | 0.0 | 0.0 | 0.00 | 0.00 | 0.00 | 57 | 1014.5 |
| 20260504005152 | 10 | 242 | 0.0 | 0.0 | 0.00 | 0.00 | 0.00 | 56 | 1014.5 |
| 20260504003858 | 11 | 242 | 0.0 | 0.0 | 0.00 | 0.00 | 0.00 | 53 | 1014.4 |
| 20260504003645 | 11 | 242 | 0.0 | 0.0 | 0.00 | 0.00 | 0.00 | 51 | 1014.4 |
| 20260504002357 | 11 | 242 | 0.0 | 1.6 | 0.00 | 0.00 | 0.00 | 49 | 1014.4 |
| 20260504000858 | 12 | 270 | 0.0 | 9.7 | 0.00 | 0.00 | 0.00 | 47 | 1014.4 |
| 20260503235357 | 12 | 239 | 1.6 | 9.7 | 0.00 | 0.00 | 0.00 | 46 | 1014.6 |
| 20260503233858 | 12 | 238 | 0.0 | 19.3 | 0.00 | 0.00 | 0.00 | 45 | 1014.7 |
| 20260503232357 | 13 | 254 | 8.0 | 12.9 | 0.00 | 0.00 | 0.00 | 43 | 1014.8 |
| 20260503230858 | 13 | 221 | 6.4 | 19.3 | 0.00 | 0.00 | 0.00 | 44 | 1014.9 |
| 20260503225357 | 13 | 209 | 1.6 | 22.5 | 0.00 | 0.00 | 0.00 | 43 | 1014.9 |
| 20260503223857 | 13 | 260 | 8.0 | 20.9 | 0.00 | 0.00 | 0.00 | 42 | 1014.9 |
| 20260503222357 | 14 | 265 | 20.9 | 17.7 | 0.00 | 0.00 | 0.00 | 42 | 1015.0 |
| 20260503220857 | 14 | 117 | 1.6 | 22.5 | 0.00 | 0.00 | 0.00 | 41 | 1015.0 |
| 20260503215357 | 14 | 287 | 1.6 | 20.9 | 0.00 | 0.00 | 0.00 | 43 | 1015.0 |
| 20260503213857 | 13 | 216 | 9.7 | 20.9 | 0.00 | 0.00 | 0.00 | 42 | 1015.0 |
| 20260503212357 | 14 | 283 | 4.8 | 25.7 | 0.00 | 0.00 | 0.00 | 40 | 1015.0 |
| 20260503210857 | 14 | 224 | 0.0 | 22.5 | 0.00 | 0.00 | 0.00 | 44 | 1015.0 |
| 20260503205357 | 15 | 296 | 4.8 | 14.5 | 0.00 | 0.00 | 0.00 | 43 | 1015.0 |
| 20260503203857 | 14 | 234 | 3.2 | 22.5 | 0.00 | 0.00 | 0.00 | 41 | 1015.3 |
| 20260503202358 | 14 | 227 | 3.2 | 19.3 | 0.00 | 0.00 | 0.00 | 39 | 1015.6 |
| 20260503200856 | 13 | 234 | 17.7 | 19.3 | 0.00 | 0.00 | 0.00 | 43 | 1015.8 |
| 20260503195358 | 14 | 253 | 8.0 | 24.1 | 0.00 | 0.00 | 0.00 | 40 | 1016.1 |
| 20260503193856 | 14 | 206 | 6.4 | 20.9 | 0.00 | 0.00 | 0.00 | 40 | 1016.3 |
| 20260503193645 | 14 | 234 | 3.2 | 20.9 | 0.00 | 0.00 | 0.00 | 42 | 1016.3 |
| 20260503192358 | 14 | 237 | 8.0 | 22.5 | 0.00 | 0.00 | 0.00 | 41 | 1016.6 |
| 20260503190856 | 13 | 209 | 9.7 | 22.5 | 0.00 | 0.00 | 0.00 | 45 | 1016.8 |
| 20260503185357 | 13 | 265 | 4.8 | 27.4 | 0.00 | 0.00 | 0.00 | 49 | 1017.0 |
| 20260503183856 | 13 | 216 | 9.7 | 22.5 | 0.00 | 0.00 | 0.00 | 43 | 1017.2 |
| 20260503182358 | 13 | 212 | 8.0 | 19.3 | 0.00 | 0.00 | 0.00 | 45 | 1017.3 |
| 20260503180856 | 12 | 285 | 6.4 | 20.9 | 0.00 | 0.00 | 0.00 | 46 | 1017.3 |
| 20260503175359 | 12 | 281 | 11.3 | 20.9 | 0.00 | 0.00 | 0.00 | 46 | 1017.5 |
| 20260503173743 | 12 | 219 | 6.4 | 25.7 | 0.00 | 0.00 | 0.00 | 46 | 1017.9 |
| 20260503172242 | 12 | 302 | 0.0 | 30.6 | 0.00 | 0.00 | 0.00 | 45 | 1017.9 |
| 20260503170743 | 12 | 237 | 6.4 | 17.7 | 0.00 | 0.03 | 0.00 | 42 | 1018.2 |
| 20260503150742 | 9 | 225 | 3.2 | 19.3 | 0.00 | 0.03 | 0.00 | 51 | 1019.1 |
| 20260503130742 | 5 | 290 | 4.8 | 19.3 | 0.00 | 0.08 | 0.00 | 73 | 1019.6 |
| 20260503110744 | -1 | 280 | 0.0 | 0.0 | 0.00 | 0.15 | 0.00 | 93 | 1018.6 |
| 20260503110643 | -1 | 280 | 0.0 | 0.0 | 0.00 | 0.15 | 0.00 | 93 | 1018.6 |
| 20260503080755 | 1 | 280 | 0.0 | 0.0 | 0.00 | 0.15 | 0.00 | 92 | 1018.0 |
| 20260503080722 | 1 | 280 | 0.0 | 0.0 | 0.00 | 0.15 | 0.00 | 92 | 1018.0 |
| 20260503072255 | 1 | 280 | 0.0 | 0.0 | 0.00 | 0.15 | 0.00 | 92 | 1017.6 |
| 20260503072157 | 1 | 280 | 0.0 | 0.0 | 0.00 | 0.15 | 0.00 | 92 | 1017.6 |
| 20260503070756 | 1 | 280 | 0.0 | 0.0 | 0.00 | 0.15 | 0.00 | 92 | 1017.5 |
| 20260503053754 | 1 | 280 | 0.0 | 0.0 | 0.00 | 0.18 | 0.00 | 91 | 1018.0 |
| 20260503052255 | 0 | 280 | 0.0 | 0.0 | 0.00 | 0.18 | 0.00 | 91 | 1018.1 |
| 20260503052158 | 0 | 280 | 0.0 | 0.0 | 0.00 | 0.18 | 0.00 | 91 | 1018.1 |
| 20260503050755 | 1 | 280 | 0.0 | 0.0 | 0.00 | 0.18 | 0.00 | 90 | 1018.1 |